Weather in Sotnur

Russia / Mari El Republic     56°08′28″N   48°46′31″E
temp.,
°C
wind,
m/s
gust,
m/s
humid.,
%
clouds,
%
prec.,
mm/h
press.,
hPa
HPBL,
m
28 september, tue
tue2800:00+3ene5118372 0.0 1024828
03:00+1ne412883 0.0 1025403
06:000ne411905 0.0 1027323
09:00+4ne59715 0.0 1027597
12:00+8ne5752100 0.0 10281199
15:00+8ne464951 0.0 10281323
18:00+4nne36715 0.0 103091
21:00+3nne2576100 0.0 103093
29 september, wed
wed2900:00+2nne248366 0.0 103072
03:00+1n228613 0.0 103134
06:000n228930 0.0 103131
09:00+6nne3463100 0.0 1031432
12:00+9n344991 0.0 10311220
15:00+9n344812 0.0 10301364
18:00+5nnw237360 0.0 103040
21:00+5n1175100 0.0 103133
30 september, thu
thu3000:00+5n1489100 0.6 1030165
03:00+5nnw119298 0.8 103020
06:00+5wnw2394100 0.1 1031124
09:00+8wnw348292 0.1 1031471
12:00+10nw3572100 0.1 10301071
15:00+8nw3681100 0.3 1029533
18:00+7wnw3889100 0.0 1029406
21:00+7w3791100 0.0 1029252
1 october, fri
fri100:00+7wnw269285 0.0 1029194
03:00+5nw24975 0.0 102965
06:00+4nw249619 0.0 103080
09:00+9nw347739 0.0 1030352
12:00+13nw346459 0.0 1030849
15:00+13nw356173 0.0 1029985
18:00+9nnw22805 0.0 103017
21:00+7nnw228814 0.0 103112
2 october, sat
sat200:00+6nnw119136 0.0 103110
03:00+5nw119285 0.0 103210
06:00+5nw119389 0.0 103210
09:00+9nw127557 0.0 1032271
12:00+13nw236157 0.0 1032960
15:00+12nw347099 0.0 1032447
18:00+10nw238399 0.0 103392
21:00+8nw11914 0.0 103310